Powrót do katalogu

SnugLite

SNUGLITE

AktywnyMilitariaSSO
NORAD 43784·PAYLOAD·🇰🇷 South Korea

Wystrzelony Dec 3, 2018 z Vandenberg Space Force Base

Loading…

Następne Przeloty (najbliższe 24 godziny)

TLE

ŚwieżeSource: Space-Track

Epoka: Sep 14, 2026, 14:17 UTC

1 43784U 18099AC  26257.59583044  .00008774  00000-0  31553-3 0  9999
2 43784  97.3772 311.0608 0002220  10.3241 349.8044 15.28853238426974

Śledź SnugLite w czasie rzeczywistym z AllMySat

Download on the App Store